Location: �clusier
(49.9361°N, 2.7869°E)
Time: 18:54:55
(UTC+00:00)

Centaur D AC-29 - Pass Details

Date: 28 October 2021
Orbit: 563 x 36274 km, 26.9° (Epoch: 02 December)

Event Time Altitude Azimuth Distance (km) Brightness Sun altitude
Rises 02:02:37 0° 194° (SSW) 13,018 7.4 -42.2°
Reaches altitude 10° 02:14:11 10° 186° (S) 14,906 7.7 -40.7°
Maximum altitude 07:07:04 52° 210° (SSW) 37,369 10.1 4.4°
Drops below altitude 10° 11:52:37 10° 148° (SSE) 6,667 7.2 26.6°
Sets 11:55:42 0° 141° (SE) 6,728 7.0 26.6°
